SCP
0 0 0 0 0 0 0 0 0 0 0 0 0 0 0 0 0 0 0 0 0 0 0 0 0 0 0 0 0 0 0 -0 -0 -0 0 0 0 0 0 0 0 0 0 0
0 0 0 0 0 0 0 0 0 0 0 0 0 0 0 0 0 0 0 0 0 0 0 0 0 0 0 0 0 0 0 0 -0 -0 0 0 0 0 0 0 0 0 0 0
0 0 0 0 0 0 0 0 0 0 0 0 0 0 0 0 0 0 0 0 0 0 0 0 0 0 0 0 0 0 0 0 0 0 0 0 0 0 0 0 0 0 0 0
0 0 0 0 0 0 0 0 0 0 0 0 0 0 0 0 0 0 0 0 0 0 0 0 0 0 0 0 0 0 0 0 0 0 0 0 0 0 0 0 0 0 0 0
-0 0 0 0 0 0 0 0 0 0 0 0 0 0 0 0 0 0 -0 -0 0 0 0 0 0 0 0 0 0 0 0 0 0 0 0 0 0 0 0 0 0 0 0 0
-0 0 0 0 0 0 0 0 0 0 0 0 0 0 0 0 0 0 0 0 0 0 0 0 0 0 0 0 0 0 0 0 0 0 0 0 0 0 0 0 0 0 0 0
0 0 0 0 0 0 0 0 0 0 0 0 0 0 0 0 0 0 0 0 0 0 0 0 0 0 0 0 0 0 0 0 0 0 0 0 0 0 0 0 0 0 0 0
0 0 0 0 0 0 0 0 0 0 0 0 0 0 0 0 0 0 0 0 0 0 0 0 0 0 0 0 0 0 0 0 0 0 0 0 0 0 0 0 0 0 0 0
0 0 0 0 0 0 0 0 0 0 0 0 0 0 0 0 0 0 0 0 0 0 0 0 0 0 0 0 0 0 0 0 0 0 0 0 0 0 0 0 0 0 0 0
0 0 0 0 0 0 0 0 0 0 0 0 0 0 0 0 0 0 0 0 0 0 0 0 0 0 0 0 0 0 0 0 0 0 -0 -0 0 0 0 0 0 0 0 0
0 0 0 0 0 0 0 0 0 0 0 0 0 0 0 0 0 0 0 0 0 0 0 0 0 0 0 0 0 0 0 0 0 0 -0 -0 0 0 0 0 0 0 0 0
0 0 0 0 0 0 0 0 0 0 0 0 0 0 0 0 0 0 0 0 0 0 0 0 0 0 0 0 0 0 0 0 0 -0 -0 0 0 0 -0 0 0 0 0 0
0 0 0 0 0 0 0 0 0 0 0 0 0 0 0 0 0 0 0 0 0 0 0 0 0 0 0 0 0 0 0 -0 -0 -0 -0 -0 -0 -0 -0 -0 0 0 0 0
0 0 0 0 0 0 0 0 0 0 0 0 0 0 0 0 0 0 0 0 0 0 0 0 0 0 0 0 0 0 0 -0 -0 -0 -0 -0 -0 -0 0 0 0 0 0 0
0 0 0 0 0 0 0 0 0 0 0 0 0 0 0 0 0 0 0 0 0 0 0 0 0 0 -0 0 0 0 0 -0 -0 -0 -0 -0 -0 0 0 0 0 0 0 0
0 0 0 0 0 0 0 0 0 0 0 0 0 0 0 0 0 0 0 0 0 0 0 0 0 0 0 0 0 0 0 -0 -0 -0 -0 -0 -0 0 0 0 0 0 0 0
0 0 0 0 0 0 0 0 0 0 0 0 0 0 0 0 0 0 0 0 0 0 0 0 0 0 0 0 0 0 0 -0 -0 -0 -0 0 0 0 0 0 0 0 0 0
0 0 0 0 0 0 0 0 0 0 0 0 0 0 0 0 0 0 0 0 0 0 0 0 0 0 0 0 0 0 0 0 0 0 0 0 0 0 0 0 0 0 0 0
0 0 0 0 0 0 0 0 0 0 0 0 0 0 0 0 0 0 0 0 0 0 0 0 0 0 0 0 0 0 0 0 0 0 0 0 0 0 0 0 0 0 0 0
0 0 0 0 0 0 0 0 0 0 0 0 0 0 0 0 0 0 0 0 0 0 0 0 0 0 0 0 0 0 0 0 0 0 0 0 0 0 0 0 0 0 0 0
0 0 0 0 0 0 0 0 0 0 0 0 0 0 0 0 0 0 0 0 0 0 0 0 0 0 0 0 0 0 0 0 0 0 0 0 0 0 0 0 0 0 0 0
0 0 0 0 0 0 0 0 0 0 0 0 0 0 0 0 0 0 0 0 0 0 0 0 0 0 0 0 0 0 0 0 0 0 0 0 0 0 0 0 0 0 0 0
0 0 0 0 0 0 0 0 0 0 0 0 0 0 -0 -0 -0 0 0 -0 0 0 0 0 0 0 0 0 0 0 0 0 0 0 -0 -0 0 0 0 0 0 0 0 0
0 0 0 0 0 0 0 0 0 0 0 0 -0 -0 -0 -0 -0 -0 -0 -0 0 0 0 0 0 0 0 0 0 0 0 0 0 0 -0 -0 -0 0 0 0 0 0 0 0
0 0 0 0 0 0 0 0 0 0 0 0 -0 -0 -0 -0 -0 -0 -0 -0 0 0 0 0 0 0 0 0 0 0 0 0 0 0 0 0 0 0 0 0 0 0 0 0
0 0 0 0 0 0 0 0 0 0 0 0 0 0 0 0 0 0 0 0 0 0 0 0 0 0 0 0 0 0 0 0 0 0 0 0 0 0 0 0 0 0 0 0
Wind_Speed
1 2 2 4 4 4 3 4 5 6 3 2 5 7 8 5 3 4 4 5 5 6 4 4 4 5 5 4 4 5 6 5 5 3 3 3 2 2 2 1 2 3 3 3
2 2 5 4 3 3 3 4 5 5 3 3 4 8 7 5 4 5 6 7 7 4 3 4 4 4 5 5 5 6 5 6 5 4 3 3 3 2 1 1 2 2 2 2
3 4 3 2 3 2 3 4 4 4 3 2 2 6 5 4 2 3 4 5 5 7 7 6 6 5 5 5 6 6 6 5 5 5 4 3 3 2 2 1 1 1 2 2
3 3 2 2 3 2 4 4 3 2 1 3 1 4 6 4 3 4 5 5 5 5 5 6 6 6 6 6 5 5 6 6 5 5 5 5 4 3 3 2 2 1 2 2
4 2 1 3 4 3 5 4 3 2 1 1 1 1 8 2 4 6 6 6 6 6 6 7 7 7 6 4 4 5 5 5 5 5 5 5 4 3 2 2 2 1 1 1
3 2 2 3 3 2 2 2 2 3 3 2 3 3 7 4 6 5 5 6 6 6 6 6 5 5 4 4 4 5 6 5 5 5 5 5 5 4 3 2 2 1 1 1
4 3 2 1 2 3 3 4 4 5 3 5 2 3 9 7 5 6 7 7 7 6 6 7 6 6 5 6 6 5 6 5 5 5 5 5 5 5 5 4 3 2 1 1
2 5 3 1 2 2 1 4 4 2 4 5 3 5 8 4 3 3 4 4 4 5 5 6 7 7 7 7 6 6 6 5 5 5 4 4 4 3 2 3 3 3 2 2
2 5 2 1 1 2 1 1 3 4 1 3 6 7 8 2 2 2 1 3 4 5 5 6 5 6 6 7 7 7 7 5 5 5 4 4 4 3 3 3 2 2 2 2
3 3 4 2 1 1 2 2 3 2 1 4 6 5 5 5 5 4 3 4 4 4 4 5 5 5 5 5 5 5 6 6 5 5 5 4 4 4 3 3 3 2 2 1
2 2 4 2 3 4 1 1 2 2 3 3 4 8 6 5 5 5 6 5 5 4 5 5 4 4 4 4 5 5 5 5 4 4 4 4 3 3 3 3 3 3 2 2
2 3 3 6 4 2 3 4 5 3 4 3 3 10 5 4 3 3 4 4 4 4 5 4 4 4 4 5 5 5 5 4 4 4 4 4 3 3 3 3 3 2 2 2
3 3 2 5 3 1 2 3 4 3 2 3 4 10 4 3 2 2 3 3 3 4 4 4 4 5 5 5 5 5 5 4 4 4 4 4 3 3 3 3 2 2 2 2
3 3 5 7 6 3 4 5 4 5 4 5 9 10 8 5 5 4 4 4 3 4 5 5 5 5 5 5 5 5 5 4 4 4 4 4 4 4 3 3 3 3 3 3
3 4 5 7 7 5 7 8 7 9 9 9 10 10 12 8 6 6 4 3 3 3 4 6 6 5 5 4 4 5 4 4 5 5 4 4 3 3 3 3 3 3 3 3
2 3 3 5 5 5 8 10 9 10 9 11 11 14 10 6 3 4 4 4 5 5 5 5 6 6 6 6 5 5 5 5 4 5 5 4 3 3 3 3 3 3 3 3
3 3 1 5 5 4 8 8 10 8 8 8 11 12 5 3 4 5 4 4 5 5 5 5 6 7 7 6 6 6 5 4 4 4 4 4 4 3 3 3 2 3 3 2
6 4 2 3 2 7 8 2 5 6 6 6 6 6 4 5 4 3 3 4 5 5 5 5 5 5 5 5 4 4 4 4 4 4 4 4 4 3 3 2 3 3 2 3
5 6 3 2 4 9 8 4 3 4 4 3 5 5 4 3 2 3 2 3 4 4 4 4 5 4 4 4 4 4 4 4 4 4 4 4 4 4 3 3 3 3 2 3
2 4 4 3 4 7 6 3 1 2 3 3 2 2 2 1 1 5 4 2 3 3 2 2 2 2 3 4 4 5 4 4 5 5 5 4 4 4 4 4 3 3 3 3
3 2 5 5 6 9 6 2 1 2 4 2 1 2 1 3 5 5 4 2 2 1 1 1 2 3 4 4 4 5 4 6 5 4 4 4 4 4 4 3 2 2 2 2
7 6 6 5 6 9 3 2 3 4 2 2 2 2 3 4 4 3 3 3 2 2 1 2 2 2 2 3 4 4 5 5 4 3 4 4 4 3 3 3 2 2 2 2
7 8 6 9 8 4 2 4 3 2 3 4 3 4 4 4 4 4 3 3 3 3 2 2 2 2 2 3 4 5 5 4 3 3 4 3 3 3 3 3 3 2 2 2
4 3 3 5 7 5 4 4 4 4 5 5 5 5 4 5 5 5 4 4 3 3 3 2 2 3 3 3 4 5 4 3 4 4 4 3 3 3 3 3 3 3 3 3
5 2 3 6 7 6 5 4 4 4 4 4 4 4 4 5 5 5 5 5 4 4 3 3 3 4 5 4 4 4 4 4 4 4 4 3 3 3 3 3 4 4 5 5
5 6 6 8 7 6 7 5 5 5 6 5 5 6 5 5 6 5 5 5 4 4 4 3 4 4 5 4 5 4 4 5 5 4 4 3 3 3 3 3 3 5 6 8
Wind_Direction
96 72 243 239 222 226 238 247 260 257 260 229 245 268 278 272 238 231 220 206 203 206 196 171 167 156 146 146 150 163 160 156 145 135 139 133 139 124 117 133 134 125 120 115
44 266 251 255 256 250 255 272 272 281 266 230 255 272 276 260 233 218 210 208 205 194 180 167 159 154 156 162 162 165 167 164 159 150 145 135 134 131 134 125 122 128 126 128
215 252 261 262 281 287 270 245 257 269 311 285 280 296 280 274 255 240 222 208 201 195 192 181 172 170 164 171 174 170 166 166 161 149 127 109 93 83 94 119 126 141 142 137
265 270 279 256 247 226 264 250 256 260 2 287 179 284 284 261 266 248 236 219 214 206 194 186 178 178 182 187 177 162 163 161 156 148 149 148 149 156 178 169 155 140 137 139
275 274 269 249 248 211 244 271 264 239 188 317 309 208 284 280 254 250 238 226 219 208 196 192 188 185 182 175 167 161 156 155 150 151 155 147 146 153 140 129 138 149 135 147
261 273 237 238 267 226 262 347 18 45 71 294 239 183 276 243 230 242 232 226 218 206 194 192 187 171 160 154 156 155 153 156 155 154 154 156 158 156 147 149 159 171 161 168
318 303 278 254 331 350 46 64 27 3 1 260 257 202 251 246 232 225 224 221 215 206 193 184 179 173 167 166 167 165 160 163 161 156 160 166 166 165 170 173 176 178 184 196
317 295 266 251 188 212 232 131 145 210 251 285 307 242 256 257 257 248 232 213 198 199 197 187 184 181 178 176 171 168 169 167 161 161 167 165 161 161 175 178 171 180 193 204
203 269 297 269 226 166 158 179 175 148 250 276 279 283 300 262 288 288 214 189 197 200 196 189 183 179 177 175 175 174 169 164 164 166 162 161 161 163 174 174 168 181 196 195
174 265 288 306 5 300 189 156 95 115 185 284 294 279 260 265 258 255 234 219 218 209 199 186 182 180 177 175 169 163 164 167 163 162 165 166 170 173 171 164 174 185 194 188
157 199 299 333 216 217 173 170 144 155 177 188 283 277 237 247 242 234 238 228 216 211 204 193 189 183 171 160 160 162 164 159 159 162 160 156 164 164 163 175 188 191 192 191
160 138 263 260 253 223 197 197 161 177 245 207 224 270 276 266 249 220 232 233 218 208 198 188 181 172 168 170 171 171 169 167 169 164 158 163 165 162 170 188 198 191 197 203
145 128 339 335 330 324 248 230 191 163 159 198 213 265 305 329 312 251 229 237 227 207 193 186 180 181 182 181 177 174 173 175 169 161 160 164 171 174 185 196 199 194 198 207
125 169 193 218 238 222 244 242 206 172 202 231 231 257 290 297 290 278 253 241 231 211 194 188 191 195 191 186 180 177 182 176 169 166 168 178 189 191 196 199 198 202 201 205
133 218 239 252 258 243 243 245 221 209 213 222 245 251 264 265 256 252 243 229 217 214 202 196 194 196 193 191 189 186 186 179 172 169 179 195 195 191 193 198 206 210 210 213
157 220 267 279 266 260 262 252 233 230 229 239 258 268 263 270 259 253 246 224 219 219 212 204 197 195 197 197 194 190 190 186 172 177 191 192 185 189 198 207 208 209 213 214
196 188 244 275 297 315 272 238 216 219 218 212 237 253 274 277 253 242 237 227 225 224 215 208 203 202 202 200 192 192 192 178 172 184 192 189 188 197 207 207 203 211 217 212
174 169 192 270 332 252 248 243 206 219 246 232 246 267 264 255 262 254 229 222 236 230 220 214 206 204 202 193 187 180 173 173 181 191 198 197 193 204 206 202 215 219 214 215
177 166 177 201 251 274 291 267 197 198 267 249 241 271 292 308 349 313 276 232 230 230 225 215 204 195 186 184 176 162 173 178 186 200 206 204 197 203 205 215 227 220 214 227
126 146 165 190 228 251 259 280 232 125 278 295 246 272 302 35 351 283 302 293 262 250 230 210 188 167 175 186 165 165 185 190 206 211 210 203 196 202 212 221 226 216 213 229
137 162 194 208 235 262 263 284 81 182 261 307 283 263 230 224 233 265 299 299 279 253 243 200 174 185 198 182 165 180 196 212 217 207 202 201 201 208 215 219 221 221 223 234
181 181 196 186 218 253 247 126 183 231 270 285 275 263 253 255 269 277 282 278 277 270 252 205 190 214 215 183 174 196 218 222 208 198 202 209 210 212 208 209 227 225 218 235
203 196 191 198 219 247 209 209 240 223 244 256 250 257 249 255 261 265 265 264 266 256 247 229 205 222 236 209 193 208 227 210 198 198 211 218 218 216 205 204 218 230 223 228
254 204 195 251 266 275 272 268 272 246 244 255 253 252 246 251 257 257 256 258 257 254 245 233 217 227 244 234 220 221 222 200 192 205 217 217 214 223 221 213 210 215 224 232
234 211 229 257 275 292 279 261 264 276 270 273 274 258 250 251 258 251 254 255 251 253 249 229 221 230 241 240 235 230 216 192 200 212 218 218 219 222 229 227 221 221 223 219
212 210 217 245 247 247 266 274 276 272 268 264 267 273 268 246 249 251 251 249 245 245 243 238 237 238 244 241 242 236 215 196 198 212 218 219 220 223 225 238 267 251 244 257